Weather History for Casa Grande, AZ

Change the Weather History Date:

Sunday, November 10, 2013

  Actual Average Record
Temperature  
Mean Temperature 64 °F -  
Max Temperature 80 °F 72 °F 87 °F (1996)
Min Temperature 48 °F 45 °F 33 °F (1998)
Degree Days  
Heating Degree Days 1    
Growing Degree Days 14 (Base 50)    
Moisture  
Dew Point 33 °F    
Average Humidity 31    
Maximum Humidity 50    
Minimum Humidity 18    
Precipitation  
Precipitation 0.00 in - - ()
Sea Level Pressure  
Sea Level Pressure 30.07 in    
Wind  
Wind Speed 2 mph (NNW)    
Max Wind Speed 9 mph    
Max Gust Speed -    
Visibility 10 miles    
Events      
Averages and records for this station are not official NWS values.
T = Trace of Precipitation, MM = Missing Value Source: NWS Daily Summary

Daily Weather History Graph

Daily Weather History Graph

Search for Another Location

Airport:

Trip Planner

Search our weather history database for the weather conditions in past years. The results will help you decide how hot, cold, wet, or windy it might be!

Date:

Astronomy

Nov. 10, 2013 Rise Set
Actual Time 6:53 AM MST 5:28 PM MST
Civil Twilight 6:27 AM MST 5:54 PM MST
Nautical Twilight 5:57 AM MST 6:23 PM MST
Astronomical Twilight 5:28 AM MST 6:53 PM MST
Moon 1:15 PM MST (11/10) No Moon Set
Length of Visible Light 11h 27m
Length of Day
10h 35m
First Quarter, 56% of the Moon is Illuminated
Nov 10
First Quarter
Nov 17
Full
Nov 25
Last Quarter
Dec 2
New
Dec 9
First Quarter

Hourly Weather History & Observations

Time (MST) Temp. Dew Point Humidity Pressure Visibility Wind Dir Wind Speed Gust Speed Precip Events Conditions
12:15 AM 57.2 °F 30.2 °F 36% 30.07 in 10.0 mi Calm Calm - N/A   Clear
12:35 AM 57.2 °F 30.2 °F 36% 30.08 in 10.0 mi Calm Calm - N/A   Clear
12:55 AM 55.4 °F 28.4 °F 36% 30.08 in 10.0 mi Calm Calm - N/A   Clear
1:15 AM 55.4 °F 30.2 °F 38% 30.08 in 10.0 mi Calm Calm - N/A   Clear
1:35 AM 55.4 °F 30.2 °F 38% 30.08 in 10.0 mi Calm Calm - N/A   Clear
1:55 AM 55.4 °F 30.2 °F 38% 30.07 in 10.0 mi Calm Calm - N/A   Clear
2:15 AM 55.4 °F 30.2 °F 38% 30.07 in 10.0 mi Calm Calm - N/A   Clear
2:35 AM 55.4 °F 30.2 °F 38% 30.07 in 10.0 mi Calm Calm - N/A   Clear
2:55 AM 53.6 °F 30.2 °F 41% 30.07 in 10.0 mi Calm Calm - N/A   Clear
3:15 AM 53.6 °F 30.2 °F 41% 30.07 in 10.0 mi Calm Calm - N/A   Clear
3:35 AM 53.6 °F 30.2 °F 41% 30.07 in 10.0 mi Calm Calm - N/A   Clear
3:55 AM 51.8 °F 30.2 °F 44% 30.07 in 10.0 mi Calm Calm - N/A   Clear
4:15 AM 51.8 °F 30.2 °F 44% 30.08 in 10.0 mi Calm Calm - N/A   Clear
4:35 AM 51.8 °F 30.2 °F 44% 30.08 in 10.0 mi Calm Calm - N/A   Clear
4:55 AM 51.8 °F 30.2 °F 44% 30.08 in 10.0 mi Calm Calm - N/A   Clear
5:15 AM 50.0 °F 28.4 °F 43% 30.08 in 10.0 mi Calm Calm - N/A   Clear
5:35 AM 51.8 °F 28.4 °F 41% 30.09 in 10.0 mi Calm Calm - N/A   Clear
5:55 AM 50.0 °F 28.4 °F 43% 30.09 in 10.0 mi Calm Calm - N/A   Clear
6:15 AM 50.0 °F 30.2 °F 47% 30.10 in 10.0 mi NNE 4.6 mph - N/A   Clear
6:35 AM 50.0 °F 30.2 °F 47% 30.10 in 10.0 mi NNE 4.6 mph - N/A   Clear
6:55 AM 48.2 °F 30.2 °F 50% 30.10 in 10.0 mi NNE 4.6 mph - N/A   Clear
7:15 AM 51.8 °F 30.2 °F 44% 30.11 in 10.0 mi NNE 4.6 mph - N/A   Clear
7:35 AM 51.8 °F 30.2 °F 44% 30.12 in 10.0 mi NNE 3.5 mph - N/A   Clear
7:55 AM 55.4 °F 32.0 °F 41% 30.13 in 10.0 mi NE 3.5 mph - N/A   Clear
8:15 AM 57.2 °F 33.8 °F 41% 30.13 in 10.0 mi Calm Calm - N/A   Clear
8:35 AM 59.0 °F 33.8 °F 39% 30.14 in 10.0 mi Calm Calm - N/A   Clear
8:55 AM 60.8 °F 33.8 °F 36% 30.14 in 10.0 mi NE 3.5 mph - N/A   Clear
9:15 AM 62.6 °F 33.8 °F 34% 30.14 in 10.0 mi NE 4.6 mph - N/A   Clear
9:35 AM 64.4 °F 33.8 °F 32% 30.14 in 10.0 mi Calm Calm - N/A   Clear
9:55 AM 64.4 °F 35.6 °F 34% 30.14 in 10.0 mi Calm Calm - N/A   Clear
10:15 AM 68.0 °F 35.6 °F 30% 30.13 in 10.0 mi Calm Calm - N/A   Clear
10:35 AM 68.0 °F 35.6 °F 30% 30.12 in 10.0 mi NNE 4.6 mph - N/A   Clear
10:55 AM 69.8 °F 35.6 °F 28% 30.12 in 10.0 mi North 4.6 mph - N/A   Clear
11:15 AM 71.6 °F 35.6 °F 27% 30.11 in 10.0 mi Calm Calm - N/A   Clear
11:35 AM 73.4 °F 35.6 °F 25% 30.11 in 10.0 mi Calm Calm - N/A   Clear
11:55 AM 73.4 °F 35.6 °F 25% 30.10 in 10.0 mi Calm Calm - N/A   Clear
12:15 PM 75.2 °F 33.8 °F 22% 30.08 in 10.0 mi Calm Calm - N/A   Clear
12:35 PM 75.2 °F 33.8 °F 22% 30.08 in 10.0 mi Calm Calm - N/A   Clear
12:55 PM 77.0 °F 33.8 °F 21% 30.07 in 10.0 mi West 6.9 mph - N/A   Clear
1:15 PM 78.8 °F 35.6 °F 21% 30.06 in 10.0 mi WNW 6.9 mph - N/A   Clear
1:35 PM 78.8 °F 35.6 °F 21% 30.04 in 10.0 mi North 5.8 mph - N/A   Clear
1:55 PM 80.6 °F 33.8 °F 18% 30.04 in 10.0 mi North 6.9 mph - N/A   Clear
2:15 PM 80.6 °F 33.8 °F 18% 30.04 in 10.0 mi NNW 6.9 mph - N/A   Clear
2:35 PM 80.6 °F 35.6 °F 20% 30.03 in 10.0 mi North 6.9 mph - N/A   Clear
2:55 PM 80.6 °F 35.6 °F 20% 30.02 in 10.0 mi NNW 8.1 mph - N/A   Clear
3:15 PM 80.6 °F 33.8 °F 18% 30.02 in 10.0 mi NNW 6.9 mph - N/A   Clear
3:35 PM 80.6 °F 35.6 °F 20% 30.02 in 10.0 mi NW 8.1 mph - N/A   Clear
3:55 PM 80.6 °F 33.8 °F 18% 30.02 in 10.0 mi NW 8.1 mph - N/A   Clear
4:15 PM 78.8 °F 33.8 °F 20% 30.02 in 10.0 mi NNW 9.2 mph - N/A   Clear
4:35 PM 78.8 °F 33.8 °F 20% 30.01 in 10.0 mi NNW 6.9 mph - N/A   Clear
4:55 PM 78.8 °F 33.8 °F 20% 30.01 in 10.0 mi NNW 9.2 mph - N/A   Clear
5:15 PM 78.8 °F 33.8 °F 20% 30.01 in 10.0 mi NNW 5.8 mph - N/A   Clear
5:35 PM 78.8 °F 33.8 °F 20% 30.02 in 10.0 mi WNW 5.8 mph - N/A   Clear
5:55 PM 75.2 °F 33.8 °F 22% 30.02 in 10.0 mi WNW 6.9 mph - N/A   Clear
6:15 PM 75.2 °F 33.8 °F 22% 30.02 in 10.0 mi WNW 5.8 mph - N/A   Clear
6:35 PM 73.4 °F 33.8 °F 23% 30.03 in 10.0 mi WNW 3.5 mph - N/A   Clear
6:55 PM 73.4 °F 33.8 °F 23% 30.03 in 10.0 mi West 4.6 mph - N/A   Clear
7:15 PM 71.6 °F 33.8 °F 25% 30.04 in 10.0 mi West 5.8 mph - N/A   Clear
7:35 PM 71.6 °F 33.8 °F 25% 30.03 in 10.0 mi WNW 5.8 mph - N/A   Clear
7:55 PM 69.8 °F 33.8 °F 27% 30.04 in 10.0 mi West 3.5 mph - N/A   Clear
8:15 PM 66.2 °F 33.8 °F 30% 30.03 in 10.0 mi Calm Calm - N/A   Clear
8:35 PM 66.2 °F 33.8 °F 30% 30.04 in 10.0 mi Calm Calm - N/A   Clear
8:55 PM 68.0 °F 33.8 °F 28% 30.04 in 10.0 mi NW 4.6 mph - N/A   Clear
9:15 PM 64.4 °F 32.0 °F 30% 30.04 in 10.0 mi Calm Calm - N/A   Clear
9:35 PM 64.4 °F 32.0 °F 30% 30.04 in 10.0 mi Calm Calm - N/A   Clear
9:55 PM 62.6 °F 30.2 °F 30% 30.04 in 10.0 mi Calm Calm - N/A   Clear
10:15 PM 60.8 °F 30.2 °F 31% 30.04 in 10.0 mi Calm Calm - N/A   Clear
10:35 PM 60.8 °F 32.0 °F 34% 30.04 in 10.0 mi Calm Calm - N/A   Clear
10:55 PM 62.6 °F 32.0 °F 32% 30.04 in 10.0 mi WNW 4.6 mph - N/A   Clear
11:15 PM 64.4 °F 33.8 °F 32% 30.04 in 10.0 mi West 6.9 mph - N/A   Clear
11:35 PM 64.4 °F 33.8 °F 32% 30.04 in 10.0 mi West 8.1 mph - N/A   Clear
11:55 PM 64.4 °F 33.8 °F 32% 30.04 in 10.0 mi West 5.8 mph - N/A   Clear